Theta_e
349 348 341 338 335 335 334 333 331 330 330 330 331 333 336 337 338 338 336 335 334 333 332 332 333 333 333 333 330 323 322 321 319 322 318 313 316 318 319 319 319 322 326 327 327 323 319 316 314 314 313 315 316 316 317 318 317 312 311 310 310 310 311 312 313 314 314 315 314 314 316 324 326 320 313 314 320 322 325 325 322 325 328 328 329
348 347 341 337 336 335 334 333 330 329 328 329 331 333 336 338 338 338 337 335 334 333 332 332 333 333 334 333 328 322 321 321 319 324 323 315 315 318 319 319 318 323 331 333 332 328 320 317 314 314 313 314 315 317 320 322 318 313 313 311 311 314 317 320 321 321 322 322 321 319 314 320 327 322 314 310 314 319 321 322 323 323 327 329 328
347 345 339 336 336 335 334 333 331 328 327 328 330 333 336 338 338 338 337 335 335 333 332 333 333 334 334 333 326 321 321 320 320 326 329 323 319 321 321 322 320 322 333 337 337 332 323 320 316 314 314 313 314 316 317 318 315 313 314 312 315 320 325 327 329 329 330 329 327 327 320 316 326 328 318 310 313 319 318 317 321 324 326 328 327
348 342 336 336 335 335 334 333 331 327 325 326 329 334 336 338 338 338 337 335 335 333 333 333 334 334 333 330 323 322 320 319 321 327 331 331 330 329 330 330 328 323 327 333 336 332 325 321 317 315 313 313 313 315 315 314 314 314 313 314 318 323 328 331 332 333 333 334 332 332 327 314 321 328 321 311 312 320 322 319 321 324 326 328 328
347 340 335 336 335 335 334 333 330 326 323 324 329 333 336 338 338 338 337 335 335 334 334 334 334 333 330 325 321 321 319 319 324 329 331 332 334 334 335 335 334 330 326 325 326 326 322 320 317 316 314 313 314 313 314 314 314 313 313 315 320 326 330 333 334 334 334 335 334 334 330 318 316 323 325 316 309 316 323 324 323 325 327 326 327
345 337 335 336 335 335 334 333 329 325 322 323 328 332 335 337 337 338 337 335 335 334 334 336 333 327 323 321 320 319 320 324 327 330 330 331 332 332 334 335 336 335 330 324 323 322 320 320 318 317 315 314 313 313 313 313 313 313 314 316 322 328 332 334 334 335 335 334 334 334 331 326 316 316 327 324 311 312 318 324 324 324 324 323 326
342 335 335 336 336 335 334 333 329 324 323 324 328 331 335 336 337 337 336 336 334 334 336 334 326 320 318 318 320 321 323 327 328 329 329 330 330 331 332 333 334 331 327 328 328 325 325 323 318 317 316 313 313 314 314 313 313 314 315 318 324 329 332 334 334 333 334 334 334 334 333 330 319 312 325 325 313 310 313 320 323 323 322 323 326
339 335 336 336 335 336 335 333 328 324 323 326 328 331 333 335 335 336 336 335 335 335 332 325 319 316 317 318 320 323 326 328 327 326 324 325 326 329 330 329 331 328 328 331 332 329 328 329 323 318 317 313 313 313 313 314 315 315 317 321 325 331 334 334 335 334 333 335 335 335 334 330 319 310 319 322 315 311 311 313 319 322 322 321 322
337 335 336 336 336 335 334 333 329 325 324 326 328 330 332 334 335 335 335 335 336 331 322 318 317 318 320 320 322 324 326 327 325 322 321 321 322 323 323 322 325 328 330 330 331 329 329 332 328 319 315 314 313 314 314 315 316 316 319 323 327 330 333 334 334 335 334 334 335 335 333 327 318 311 315 320 315 311 311 310 312 318 321 318 316
339 337 336 335 336 335 335 334 331 327 325 325 326 328 330 332 334 335 335 335 331 322 317 318 321 323 325 325 327 328 330 330 325 322 322 323 323 322 321 320 321 323 324 324 326 326 329 332 331 323 315 314 313 314 314 315 317 318 320 323 327 331 334 334 334 333 332 331 332 334 333 328 321 311 310 315 313 311 312 310 310 317 320 318 319
342 341 338 335 336 335 335 335 332 329 326 325 325 326 327 330 332 332 333 329 322 319 321 324 325 327 329 329 332 333 333 333 331 328 328 327 328 327 326 324 323 323 322 321 320 325 330 330 330 326 317 315 314 314 315 316 318 319 320 324 328 332 334 334 335 333 332 332 331 332 329 326 318 309 308 310 311 311 311 310 310 316 319 319 320
343 344 339 335 335 336 336 335 333 330 328 327 326 324 324 324 326 326 325 323 321 324 326 328 329 330 331 332 333 334 333 334 335 334 334 333 333 333 330 328 328 327 325 323 320 322 326 326 328 326 320 316 314 315 316 317 318 319 321 324 329 332 334 333 334 334 333 333 333 331 329 325 314 313 318 312 309 311 310 311 309 311 315 317 319
344 345 340 335 335 336 335 336 334 332 330 328 327 324 323 322 321 322 323 325 326 328 328 329 330 331 332 333 333 334 334 335 335 336 337 336 336 335 334 333 332 330 328 327 326 323 320 324 327 322 319 318 315 316 316 317 318 320 322 324 329 332 334 334 333 334 333 333 334 331 329 324 314 320 325 314 308 310 310 311 310 309 309 311 313
345 346 342 335 334 335 335 336 335 334 331 330 328 326 325 324 324 325 327 328 329 329 330 331 331 332 333 333 334 333 334 335 335 336 337 337 336 335 335 335 333 330 329 329 332 329 322 324 326 320 317 318 317 316 316 317 318 321 324 324 328 331 333 334 334 334 332 331 332 328 325 318 314 321 322 313 308 309 310 310 311 310 310 309 309
346 346 342 335 335 335 336 336 335 334 333 331 330 328 328 327 328 328 329 329 330 331 332 332 332 332 332 332 333 333 334 334 335 335 336 336 336 335 334 334 331 328 328 330 333 332 326 325 324 319 316 316 317 318 317 317 317 320 325 325 329 333 333 333 334 333 332 333 331 330 328 318 315 319 316 310 308 309 309 309 310 310 310 309 309
346 346 342 335 334 335 335 336 336 336 334 332 330 329 329 329 329 329 330 330 331 332 333 333 333 332 330 330 331 332 333 333 333 333 334 335 334 333 333 331 328 327 327 329 331 330 327 325 324 320 314 315 317 318 319 318 317 320 324 325 329 334 334 334 334 333 332 334 332 331 328 318 315 317 313 309 308 308 309 308 309 310 310 310 309
346 346 340 334 334 335 335 336 336 336 335 333 332 330 330 330 330 330 331 331 331 332 333 333 332 330 330 329 330 331 331 331 332 331 332 332 332 332 331 329 328 328 327 327 328 326 324 323 324 322 316 313 316 317 318 319 318 319 323 324 329 333 334 334 335 334 333 333 333 331 326 318 315 315 312 311 309 308 308 308 308 309 310 310 310
345 344 338 334 335 335 336 336 336 336 335 335 333 331 331 331 332 332 332 332 332 332 332 332 330 329 330 329 329 328 327 328 329 330 330 331 331 330 329 328 329 329 328 325 324 322 321 320 321 323 320 315 314 316 316 318 319 319 324 325 328 332 333 334 334 334 333 333 334 332 327 321 316 314 312 312 311 309 308 308 308 308 308 309 310
345 344 338 335 335 336 336 336 336 336 336 335 333 331 333 333 333 333 333 333 332 332 332 330 329 328 328 327 326 325 325 326 326 328 329 330 329 329 328 329 329 328 325 324 323 323 322 321 319 320 321 318 315 317 317 317 318 322 326 326 328 332 333 334 333 333 333 334 333 332 329 323 317 313 312 312 312 310 309 308 307 307 308 308 308
345 344 340 338 338 338 336 336 336 336 336 336 333 333 334 333 333 333 333 333 332 332 331 328 327 327 326 326 325 326 327 326 326 328 329 330 329 328 328 328 328 327 325 324 324 324 324 324 322 319 320 321 318 319 320 319 320 325 327 325 328 333 334 333 333 331 332 333 332 332 330 323 318 315 312 313 312 311 309 308 307 307 307 307 308
345 343 342 340 340 338 337 336 336 336 336 336 335 335 334 334 334 333 333 333 332 332 329 326 326 326 326 327 328 328 328 327 328 328 328 327 327 327 326 326 326 326 324 323 323 324 325 324 323 320 318 320 320 321 323 325 324 326 328 326 327 331 333 334 333 331 331 331 329 330 328 321 318 317 315 312 312 312 311 309 308 307 307 307 307
344 343 342 341 340 339 338 336 335 336 336 336 336 335 334 334 334 333 333 332 332 331 327 325 326 327 328 328 329 329 328 328 329 329 327 327 327 326 325 324 324 323 322 322 322 322 324 323 321 321 318 317 319 320 322 325 325 327 327 327 327 328 331 333 332 331 331 331 329 328 325 320 318 318 317 314 312 312 312 311 309 308 307 307 307
344 344 342 341 341 339 338 336 335 336 336 336 335 334 333 334 333 333 332 330 331 330 326 326 328 329 329 328 328 327 326 327 330 330 329 329 327 325 324 322 321 321 320 321 321 320 321 321 320 320 319 319 321 320 320 323 324 325 326 326 326 328 332 333 332 332 331 330 329 326 323 319 318 318 318 316 313 312 312 311 310 308 307 307 307
344 344 342 341 341 339 339 337 336 336 336 336 334 332 332 332 332 332 331 330 330 329 326 328 330 331 329 327 326 325 325 328 330 331 330 330 328 324 323 322 322 322 321 322 324 322 320 320 321 320 323 326 327 326 326 327 325 323 325 326 327 331 332 331 331 331 330 329 326 324 322 319 318 317 317 317 315 314 313 312 310 308 307 307 307
342 343 342 341 340 339 338 337 336 336 336 336 334 333 332 332 332 331 331 330 330 329 328 329 330 330 329 326 325 325 326 330 330 329 329 330 329 325 323 324 326 327 324 326 329 326 324 326 327 324 325 329 330 330 330 331 328 324 325 326 329 334 332 331 331 330 328 327 326 323 322 319 318 316 316 317 316 315 314 312 311 309 308 307 307
341 342 342 340 339 338 337 336 337 336 336 336 334 333 332 332 330 329 331 331 330 330 330 330 329 330 329 325 325 324 325 328 327 328 329 329 329 327 327 328 330 330 326 327 329 327 329 330 330 328 327 329 330 330 330 331 330 329 329 329 332 334 332 331 332 330 330 329 327 325 322 319 317 315 315 317 317 315 313 312 310 308 308 307 307
342 342 341 340 338 337 335 336 337 335 335 334 333 334 332 332 329 328 331 333 331 330 329 329 328 329 327 325 325 324 322 325 326 327 328 328 329 329 330 331 330 329 325 326 326 326 329 330 330 329 328 329 330 330 329 331 332 332 332 332 333 334 332 332 332 331 331 330 328 325 323 320 316 314 314 315 316 316 314 312 310 308 308 307 307
343 341 339 339 338 337 336 337 336 335 334 332 333 334 332 332 331 330 333 333 329 328 328 329 329 327 326 326 326 325 324 325 326 327 327 328 330 330 330 331 330 327 326 327 326 326 328 329 330 329 327 328 329 328 329 329 331 332 333 333 333 332 332 332 331 331 331 330 327 324 323 321 317 313 312 312 314 315 315 313 311 309 307 307 306
342 341 339 339 338 337 337 336 336 335 335 334 334 334 332 332 332 332 332 329 327 326 327 329 329 327 328 328 327 326 326 326 327 328 326 327 330 330 329 330 329 327 326 327 327 327 328 329 329 328 328 328 329 328 328 328 330 331 332 333 334 332 332 332 331 332 331 330 327 324 323 323 320 315 311 310 311 313 316 316 312 309 307 306 306
342 340 339 339 337 336 336 335 334 334 334 332 332 332 333 332 331 332 330 327 327 327 327 329 329 329 329 329 327 326 326 326 328 328 326 327 330 330 329 329 330 329 327 327 328 327 328 329 328 328 328 329 329 328 328 329 329 330 331 332 333 332 332 331 331 332 331 331 328 324 324 324 322 318 313 310 309 311 316 317 313 309 308 306 307
341 341 339 338 336 335 336 334 333 333 333 333 332 332 332 332 332 331 328 328 328 327 328 329 329 329 328 328 327 326 326 327 328 328 326 325 327 328 328 329 330 330 328 327 328 326 326 328 328 327 328 328 328 327 327 329 328 329 330 331 332 332 332 331 331 331 331 331 327 325 325 326 325 322 316 311 309 310 314 315 311 308 306 306 307
341 340 339 338 336 335 336 335 332 331 332 333 332 332 332 332 332 329 328 330 329 328 329 328 328 328 327 326 325 325 327 328 329 329 327 326 326 327 327 327 328 328 328 327 327 326 326 327 327 327 329 328 327 326 326 327 328 328 330 330 330 331 331 331 330 329 328 329 328 327 327 327 326 324 320 314 311 309 311 313 312 310 309 308 307
341 340 339 338 336 335 336 335 333 332 332 331 330 331 330 333 333 330 329 330 328 328 329 328 327 327 326 325 327 328 328 329 328 328 328 327 326 326 327 327 326 325 326 327 326 326 326 326 326 327 329 327 326 325 326 327 328 328 329 329 329 329 330 329 329 325 325 329 329 329 328 328 328 327 325 321 317 312 310 313 314 313 313 312 310
339 340 339 338 335 334 335 335 334 333 332 330 329 329 329 332 332 330 329 329 327 328 329 328 327 327 327 328 329 329 330 330 328 328 329 328 326 326 328 328 327 325 327 325 325 325 326 326 325 327 328 326 326 326 327 327 327 327 328 328 328 328 329 329 328 326 327 329 329 329 329 329 329 328 328 327 325 321 318 318 319 319 319 317 314
339 340 339 338 335 333 334 335 335 334 333 330 328 327 328 330 330 328 328 328 327 327 328 327 327 329 330 330 330 331 331 330 329 329 329 328 327 328 328 328 328 327 327 326 324 324 325 327 326 327 328 326 327 327 327 328 327 327 328 328 328 328 328 329 330 329 330 329 329 329 329 328 328 329 329 328 328 327 325 325 324 325 325 324 320
339 339 339 339 336 333 334 334 334 334 333 330 328 328 327 328 328 325 325 324 325 326 326 327 328 330 330 330 329 329 329 330 330 329 328 327 327 327 327 327 328 327 328 327 324 323 324 327 327 327 327 326 326 326 327 328 327 328 328 328 329 328 328 329 330 330 330 329 330 330 329 329 329 329 329 328 328 328 328 328 327 328 327 327 326
339 338 338 338 335 335 335 333 332 332 331 331 330 329 327 328 327 323 321 321 324 327 326 326 327 328 329 329 327 326 327 328 329 329 328 327 326 328 328 327 326 327 327 325 323 323 323 324 326 327 327 326 324 325 326 326 327 328 328 328 329 329 328 329 329 328 328 328 329 330 329 329 328 328 328 328 328 328 328 328 328 328 328 328 328
338 337 337 337 336 336 335 333 331 331 331 330 329 327 325 325 326 323 321 323 325 327 325 324 324 324 326 328 328 327 327 328 328 329 329 327 328 329 328 326 325 325 326 324 322 323 324 323 324 325 326 325 325 324 324 325 326 326 326 326 328 328 328 329 328 327 327 325 325 328 328 328 327 327 328 328 328 327 327 327 328 328 328 328 328
338 337 337 337 337 335 335 334 331 330 331 330 327 325 322 323 324 324 324 324 323 322 323 324 325 326 327 329 331 329 328 330 329 330 329 327 328 329 327 325 324 324 325 325 323 323 323 323 323 323 324 324 326 325 325 326 326 327 326 325 326 326 326 327 327 327 327 325 323 326 327 326 325 325 327 328 327 327 326 326 326 327 327 327 328
337 337 337 337 337 335 333 332 330 330 331 330 326 324 324 323 323 322 321 321 320 321 325 328 328 329 329 328 330 329 329 329 329 330 329 328 329 328 327 326 324 324 325 324 323 324 324 323 322 323 323 323 325 325 327 328 327 328 328 325 324 326 325 325 326 326 327 325 324 325 326 326 325 325 326 327 327 327 326 325 325 326 327 327 327
337 336 336 337 337 335 331 328 330 331 329 328 325 324 324 323 322 322 323 325 326 327 330 330 330 331 330 328 328 329 329 329 330 330 329 328 329 328 328 327 325 325 326 325 324 324 323 323 323 323 323 323 324 326 328 328 328 329 330 326 325 327 326 326 327 327 326 326 326 326 325 326 326 326 327 326 326 326 326 325 325 325 326 326 326
336 336 335 336 337 336 331 329 331 329 327 327 325 324 322 321 324 327 329 329 328 329 331 330 329 327 328 327 327 326 326 327 330 329 329 328 327 328 328 327 326 326 326 326 326 326 324 323 324 324 324 323 324 327 328 328 329 330 329 327 325 327 326 326 327 328 328 327 326 326 325 326 326 327 327 325 325 326 325 325 326 325 325 325 325
336 336 336 337 337 335 334 332 330 327 324 325 326 326 325 326 329 330 329 328 327 329 327 323 319 316 320 323 323 325 325 325 327 328 329 329 328 327 327 327 327 326 326 326 326 327 324 323 325 325 325 324 325 328 329 328 328 329 329 328 327 327 327 327 327 328 328 327 326 327 326 327 326 327 327 326 326 326 325 325 325 325 325 325 325
336 337 338 337 336 335 334 330 327 325 324 326 329 330 330 330 330 328 328 329 329 327 322 319 317 316 322 323 321 325 328 327 326 326 327 327 328 329 328 327 327 326 326 327 327 326 324 323 324 325 325 325 325 327 328 326 326 328 328 328 328 328 327 328 328 328 328 327 327 327 326 326 326 326 327 326 325 325 325 325 325 325 325 325 326
338 338 338 336 335 336 333 328 327 326 326 329 331 333 331 329 330 329 329 329 326 323 321 321 322 323 325 323 321 325 328 327 327 327 327 324 324 326 326 326 326 327 327 327 326 325 325 325 325 325 326 326 325 326 327 326 325 327 328 327 328 328 328 327 327 327 327 327 326 326 325 325 325 325 325 324 323 323 323 324 324 325 325 326 325
337 336 336 335 334 335 332 328 327 326 327 329 330 332 329 327 330 330 326 324 322 323 324 323 324 324 325 325 326 328 328 327 327 327 325 323 322 322 323 324 323 324 326 327 327 326 327 327 327 327 326 326 327 327 327 326 325 327 328 327 326 327 327 326 326 326 326 325 325 324 324 324 324 324 323 322 323 323 322 322 322 322 322 323 321
333 334 334 332 331 334 333 329 327 325 326 328 326 326 323 322 328 327 324 326 327 328 325 324 326 323 323 325 325 325 324 324 326 325 322 322 322 323 325 325 323 322 324 326 327 328 327 328 328 328 327 327 327 328 327 325 326 327 328 327 326 326 325 325 326 325 324 324 323 323 323 322 322 322 322 322 322 321 322 321 321 321 318 316 314
333 332 331 329 328 331 331 328 326 324 325 326 323 322 320 322 327 327 327 330 330 328 326 325 323 317 317 320 320 324 325 324 325 326 324 323 323 323 324 326 325 324 324 324 326 328 328 329 329 326 326 327 326 327 327 326 327 327 327 327 326 326 326 326 325 325 323 323 323 322 322 322 321 321 320 320 320 320 320 320 320 320 317 314 314
334 331 328 326 326 328 327 324 323 322 323 325 322 322 321 322 326 328 329 330 328 326 326 322 314 312 319 323 323 325 324 323 325 325 325 325 325 324 323 324 325 325 324 324 325 327 327 327 327 325 325 326 326 327 327 326 327 327 327 327 326 325 326 326 326 325 323 323 323 322 321 320 319 319 318 318 318 319 319 318 318 317 316 316 316
334 332 327 325 325 326 325 322 322 321 322 323 321 321 321 320 324 327 328 329 326 325 324 317 311 315 322 324 323 321 318 318 322 324 325 324 324 325 324 323 324 324 323 324 325 325 325 325 324 323 325 326 326 327 327 327 326 326 326 327 326 324 325 326 325 325 323 323 323 322 320 319 318 317 317 316 317 317 318 318 317 316 314 314 314
333 331 328 326 324 324 324 323 322 321 321 321 320 320 319 320 325 327 328 327 326 326 322 313 312 317 320 322 323 324 323 319 319 323 324 323 322 323 324 323 323 324 323 323 324 322 323 325 323 323 324 325 325 326 326 326 326 326 326 327 327 324 325 326 325 324 323 323 322 322 321 319 317 317 317 316 316 315 315 316 316 315 311 310 309
Wind_Speed
14 14 16 17 16 16 15 15 17 17 17 17 17 18 18 18 18 18 17 16 15 14 13 12 12 11 10 10 9 9 9 10 11 12 12 14 16 15 14 12 10 9 8 8 8 8 9 11 12 12 12 12 14 15 14 14 15 16 17 18 19 20 20 20 21 21 20 20 19 17 17 16 17 18 19 18 15 13 16 15 13 15 19 19 18
15 16 17 18 16 16 15 15 16 16 17 17 17 18 18 19 18 18 17 16 15 14 13 12 11 10 10 9 8 8 8 9 11 12 12 13 14 14 13 11 10 9 9 8 9 9 9 11 11 11 11 12 12 13 14 14 15 16 17 18 20 21 22 23 23 23 22 22 22 21 19 17 17 18 20 21 17 14 15 15 14 16 18 18 18
15 19 19 19 17 16 15 15 16 16 16 16 17 18 19 19 18 18 17 16 14 14 13 12 10 9 9 8 8 8 8 8 10 11 12 12 13 13 11 11 10 10 10 9 9 8 8 9 9 10 11 10 11 13 14 14 16 17 17 19 21 23 24 25 26 26 24 23 23 23 21 18 17 18 20 22 20 17 17 17 17 18 17 16 18
14 20 20 20 17 16 15 15 15 15 16 16 17 18 19 18 18 18 16 16 14 13 12 11 10 8 8 8 8 8 8 8 10 11 11 12 12 11 10 10 9 9 10 10 7 5 5 6 8 9 9 10 10 12 14 15 17 18 18 20 22 23 24 26 28 27 26 23 22 22 21 18 18 18 18 21 22 18 18 18 17 17 16 16 17
15 22 22 20 17 16 15 15 15 15 16 17 18 18 18 18 18 17 16 15 13 13 11 10 9 7 7 8 8 8 8 9 11 11 11 11 10 10 9 8 8 8 8 9 7 4 3 4 6 8 8 9 10 11 12 14 16 18 18 20 22 23 25 27 27 26 25 22 19 18 16 18 17 16 16 19 22 19 17 17 17 16 14 15 16
17 25 22 21 18 16 15 15 15 15 16 16 18 17 18 18 17 17 16 14 13 12 11 10 9 7 8 8 9 9 9 10 11 11 11 11 10 9 8 8 7 6 6 7 6 5 4 4 5 6 8 8 9 10 11 13 15 17 18 19 21 23 26 27 26 25 24 21 19 14 9 15 15 14 15 16 20 20 17 16 16 15 14 15 15
20 26 22 20 18 17 16 15 16 15 16 17 17 17 17 17 17 16 15 14 13 12 11 10 9 9 9 9 10 10 10 10 11 10 10 11 11 9 8 8 7 5 4 6 6 5 5 5 5 6 8 8 8 9 11 13 14 16 18 19 22 24 26 26 26 24 24 21 18 10 7 13 12 12 14 15 18 20 18 16 16 15 15 15 13
22 25 21 20 18 17 16 16 16 16 17 17 17 16 16 16 16 15 14 13 12 11 10 10 10 10 10 10 10 10 10 10 10 9 10 11 11 11 10 9 8 5 5 6 6 6 6 6 5 7 9 9 8 8 10 12 14 16 18 20 22 24 25 24 23 23 23 20 14 6 6 9 10 11 14 15 17 19 19 17 16 14 15 14 12
23 23 21 20 18 18 17 17 16 17 17 16 16 16 16 15 15 14 14 14 12 11 11 11 12 11 11 10 10 10 10 9 9 10 10 11 12 11 10 10 9 7 7 7 7 7 7 6 6 8 10 10 9 8 9 12 13 15 18 19 20 22 23 22 21 20 20 15 7 3 2 6 10 11 13 14 15 17 18 17 16 15 15 15 14
20 19 20 20 18 18 17 17 17 17 17 16 16 15 16 15 15 15 14 14 12 11 12 12 12 11 11 10 10 9 9 10 10 10 10 10 11 11 10 8 8 8 8 8 7 7 7 6 6 8 11 10 10 9 9 10 12 14 16 17 19 22 22 21 20 20 19 12 4 5 3 5 9 8 12 14 15 15 15 16 17 16 17 17 16
18 15 17 20 18 18 17 17 17 17 17 16 16 16 16 16 16 15 15 14 13 13 13 13 12 11 11 11 10 9 9 9 10 11 10 10 10 10 9 8 8 8 8 7 6 6 7 6 6 8 10 10 10 9 8 9 10 12 14 16 19 21 21 20 20 21 16 9 4 5 5 6 6 7 11 13 14 14 14 16 18 17 17 16 16
20 14 15 21 18 18 18 17 17 17 17 17 17 17 17 17 17 16 16 15 14 14 14 13 13 11 11 10 9 9 8 8 9 10 10 9 10 10 9 8 8 7 7 6 5 5 5 6 6 7 10 10 11 10 9 9 9 10 12 15 19 21 21 20 21 20 12 5 1 3 3 7 5 10 11 13 13 13 14 15 17 17 17 16 16
21 14 13 21 20 19 18 17 17 17 17 17 17 18 17 18 17 17 17 16 15 14 14 13 13 11 10 9 9 8 7 8 8 9 10 9 9 9 9 8 6 6 5 5 5 4 4 5 5 6 10 11 11 11 10 9 8 10 12 14 17 19 21 21 21 16 11 5 3 4 4 6 6 12 12 12 13 13 13 14 15 16 17 17 16
19 14 14 21 21 20 18 17 17 16 17 16 17 17 17 18 17 17 16 16 15 14 13 13 12 11 9 9 9 8 7 8 8 8 10 9 8 8 8 7 5 5 4 5 5 4 3 4 4 6 10 12 12 12 11 9 9 9 10 13 15 18 19 20 19 13 9 4 6 2 3 5 6 11 12 11 12 12 12 12 14 15 15 16 16
17 14 16 21 22 21 19 17 16 16 15 15 16 16 17 17 17 16 15 15 14 13 13 12 11 9 8 7 7 8 8 8 8 8 10 9 8 7 7 5 4 3 3 4 5 4 3 2 1 2 7 11 12 12 11 10 9 8 10 13 14 16 17 18 18 12 8 5 7 5 4 7 5 8 10 9 11 11 11 12 12 13 14 15 15
16 14 16 21 22 22 20 18 16 15 15 15 15 16 16 16 16 16 15 14 13 13 12 12 10 8 7 7 7 8 9 8 8 8 9 9 7 6 5 3 2 2 1 2 3 2 3 2 1 0 3 8 11 12 11 10 9 7 8 11 13 16 17 17 17 11 6 4 6 5 5 6 5 6 8 8 10 10 10 11 11 12 13 13 14
14 12 16 22 22 22 21 19 18 16 16 16 15 16 16 16 15 15 14 13 12 12 11 11 9 7 7 7 7 7 7 7 7 7 7 6 5 4 3 2 2 2 1 1 0 1 2 1 1 0 2 5 9 12 12 11 9 7 7 10 13 16 16 15 15 13 6 5 5 3 5 7 7 5 7 7 9 9 9 10 11 11 11 12 12
13 11 18 23 20 22 21 20 19 18 17 17 17 16 16 15 14 14 13 12 11 11 10 9 8 7 7 7 7 6 6 5 5 4 4 4 3 3 2 2 2 1 0 1 1 1 1 0 1 2 2 3 6 10 12 12 9 8 7 10 14 15 14 13 14 11 7 7 6 5 7 9 8 4 5 6 7 9 9 9 10 10 10 11 11
13 12 18 21 21 21 20 20 20 19 18 18 18 17 16 15 14 13 13 12 10 10 9 8 8 7 7 7 6 5 5 5 4 3 4 4 3 3 2 2 1 0 0 0 0 1 2 2 0 2 2 2 4 7 10 11 9 8 9 12 15 15 14 13 12 8 9 8 6 6 5 8 8 4 3 6 6 7 8 8 8 9 9 10 10
15 15 18 21 20 18 19 22 20 18 19 19 20 19 17 16 15 14 12 11 10 10 9 8 8 8 8 8 7 7 6 6 4 4 4 4 3 3 2 1 1 0 1 1 2 2 2 2 2 0 2 2 3 6 8 9 9 9 10 13 15 17 16 12 10 8 9 7 6 5 4 7 7 4 1 4 5 6 7 7 7 8 8 9 9
16 17 18 19 16 16 21 22 18 18 20 20 20 19 18 17 16 14 12 11 10 9 9 8 9 9 10 9 9 9 7 6 5 5 4 3 2 3 2 1 1 1 2 2 3 3 3 3 3 2 1 2 4 6 8 8 8 9 11 13 15 15 13 10 7 7 7 6 4 4 3 7 7 4 1 3 4 5 6 7 7 7 7 7 8
16 16 17 15 13 17 21 20 16 17 20 20 19 18 18 18 16 14 13 11 10 10 9 9 10 10 10 9 8 8 5 5 5 5 4 3 3 3 2 1 1 2 3 3 3 4 3 4 3 3 2 1 4 6 8 9 8 9 12 13 14 12 10 10 8 7 8 5 4 4 5 7 7 5 3 1 3 3 4 6 7 6 6 6 6
17 16 16 14 13 16 19 19 17 19 21 20 18 17 18 18 16 15 14 12 11 10 10 10 11 10 10 9 7 7 3 4 6 6 5 4 4 3 2 1 1 2 3 3 4 4 4 4 3 3 3 3 4 6 7 7 9 10 11 12 12 10 11 10 9 9 9 7 4 3 5 7 7 6 4 2 1 2 3 5 6 6 5 5 5
16 15 15 15 13 15 19 20 18 19 21 20 19 18 19 18 16 15 14 13 12 11 12 12 11 9 10 9 6 7 5 5 6 6 5 5 5 3 1 1 1 3 3 3 3 3 2 2 2 2 4 7 6 5 5 1 6 10 10 12 11 9 11 9 8 10 9 6 3 2 3 6 7 6 5 3 1 1 2 5 6 6 5 5 5
16 13 13 15 15 15 17 19 19 20 21 21 19 19 19 17 16 16 15 14 13 13 13 12 10 8 9 9 5 7 8 6 7 7 6 7 6 5 3 1 1 3 2 1 0 1 1 0 1 2 4 6 6 4 3 5 6 7 10 12 10 9 12 9 11 12 9 6 3 1 3 5 6 7 5 4 3 1 1 4 5 6 6 5 4
15 13 14 15 15 15 14 18 21 21 21 20 18 17 18 17 16 16 15 15 14 14 13 11 10 9 9 9 7 6 7 7 8 8 7 8 7 6 5 4 2 2 1 0 1 2 1 1 1 3 3 4 2 2 5 9 8 6 9 11 10 11 12 11 13 13 10 8 6 2 2 3 4 5 5 4 3 2 1 3 5 6 6 5 4
14 13 15 15 15 16 15 19 21 19 20 17 15 16 16 15 15 16 15 14 13 13 12 10 10 9 9 10 9 9 7 8 10 10 9 8 7 6 6 5 2 3 3 2 3 3 3 3 1 2 2 3 1 5 7 9 8 9 10 10 10 12 12 10 12 10 7 5 5 3 1 1 2 3 4 3 3 2 0 2 5 6 6 6 4
13 12 14 15 15 14 13 16 19 18 19 17 16 17 17 15 14 14 13 12 10 10 10 10 10 9 10 12 11 11 10 10 11 10 8 7 7 6 6 5 4 4 5 4 4 3 4 4 3 3 3 4 4 5 6 7 9 10 10 10 9 11 13 12 11 9 6 3 3 2 1 1 2 3 3 3 3 2 1 2 4 6 6 6 5
14 12 14 15 13 12 14 16 17 18 18 18 17 16 17 16 14 12 9 9 8 9 10 11 10 9 11 13 12 11 10 9 9 9 8 6 6 6 6 6 5 4 4 5 5 4 4 4 5 6 5 7 6 6 7 7 9 9 9 11 11 11 14 14 11 10 7 5 4 3 1 1 2 3 3 3 4 3 2 1 4 5 5 6 5
15 13 13 14 16 16 15 14 14 17 17 18 17 15 15 15 13 12 9 9 9 10 11 11 11 11 12 12 11 11 9 8 8 10 9 7 6 6 6 6 5 5 4 4 5 5 6 5 6 9 8 8 8 8 10 6 8 10 8 10 12 12 11 11 12 9 5 5 5 3 1 1 2 3 4 4 4 4 2 1 4 4 4 5 4
16 15 13 14 19 17 14 14 16 15 15 16 15 14 13 13 14 12 10 11 10 10 11 11 11 11 10 10 9 9 10 10 9 9 8 7 7 6 6 7 7 7 6 6 7 7 7 7 7 10 10 9 8 9 11 8 7 10 9 9 12 13 9 8 12 8 5 5 5 3 2 2 2 4 4 5 5 4 4 4 5 5 4 4 3
17 15 13 14 16 16 16 18 18 15 14 13 13 13 12 12 14 13 11 11 10 10 10 10 10 8 7 8 9 9 10 10 10 10 9 9 9 8 8 9 10 10 10 9 9 9 8 8 8 10 10 9 9 9 10 9 7 8 8 9 10 11 11 9 11 8 7 7 5 4 3 3 3 5 5 5 6 6 6 6 7 7 7 6 6
17 15 13 14 14 16 19 18 18 17 14 13 13 13 12 10 12 13 11 9 9 9 9 8 8 7 7 8 9 9 10 10 9 10 12 11 10 11 11 12 12 11 12 12 10 9 9 9 9 10 10 9 9 10 10 9 9 8 8 10 9 8 9 9 9 8 9 9 7 5 4 4 4 6 6 6 7 7 7 8 8 8 8 7 7
18 18 14 15 15 17 20 18 17 17 16 14 14 12 10 10 9 10 9 8 8 8 7 7 7 7 8 8 9 9 9 10 9 10 12 11 11 13 14 13 13 12 12 12 10 9 9 10 10 10 10 9 9 10 10 10 11 12 9 7 7 7 7 8 10 9 8 9 8 6 5 5 5 6 7 7 7 8 8 8 8 9 9 8 8
17 20 17 17 19 19 20 20 18 17 18 16 14 12 10 9 8 8 8 8 7 7 6 5 5 5 6 7 8 8 9 10 10 12 11 10 12 13 12 12 12 11 12 12 11 10 11 11 10 10 10 9 9 10 10 9 10 11 7 2 6 6 6 9 11 10 9 9 9 8 7 6 6 6 7 7 7 8 8 8 7 8 8 8 8
15 19 19 19 20 18 17 19 20 18 18 18 16 15 13 11 10 8 7 7 5 5 5 4 4 3 4 5 5 6 6 7 9 11 11 11 12 11 9 10 10 10 11 12 11 11 12 12 10 10 10 9 8 8 8 8 8 6 4 1 6 4 5 9 9 9 9 8 7 7 7 6 6 6 5 5 6 6 7 7 6 6 6 6 6
14 19 21 20 20 20 16 18 22 20 18 19 19 18 15 14 12 9 7 8 6 4 5 4 4 3 4 3 3 4 3 4 4 6 10 11 10 10 9 10 10 9 10 11 11 12 12 12 11 10 9 9 8 7 7 6 7 3 2 3 6 5 6 7 7 7 7 6 5 5 5 4 5 6 4 4 5 5 5 5 4 4 5 5 5
14 18 21 20 21 23 21 19 21 20 18 18 19 19 15 14 14 10 8 9 7 6 5 4 2 2 3 3 3 4 4 3 2 3 8 9 8 9 10 10 10 10 10 10 11 12 10 10 11 10 9 10 9 7 6 7 6 4 2 6 7 6 7 6 7 8 6 6 4 4 4 4 4 4 4 4 4 4 4 4 3 2 3 4 3
15 20 23 21 23 25 24 22 21 20 19 17 17 18 15 15 15 11 9 9 7 6 6 3 0 1 3 4 4 3 3 4 4 3 6 6 8 9 9 9 9 9 10 10 10 10 9 9 9 9 9 10 8 6 7 8 6 4 6 9 9 7 6 6 7 7 6 5 4 3 3 3 3 2 3 4 3 3 2 2 2 1 2 2 2
17 22 25 22 23 25 24 22 21 19 20 19 16 17 16 15 15 12 10 9 6 5 5 3 3 2 2 3 4 4 3 3 4 4 4 5 7 8 8 8 8 9 10 10 10 10 10 9 9 8 8 8 7 5 6 8 6 6 7 9 8 7 6 5 5 5 4 4 4 4 4 3 3 3 3 4 2 2 3 2 1 1 1 1 0
19 21 26 23 22 24 24 22 21 20 20 19 16 17 17 16 15 12 10 8 6 7 6 5 5 4 3 2 3 4 4 3 3 4 4 4 5 6 8 8 8 9 10 10 9 10 10 9 9 8 8 8 7 6 7 7 6 9 9 8 6 6 6 5 5 5 4 4 4 3 2 1 2 2 3 4 3 4 3 3 2 1 1 1 1
21 22 25 24 22 23 23 23 22 21 19 17 17 18 16 15 14 11 11 10 8 8 8 8 9 7 6 5 4 4 4 4 3 2 3 3 3 4 7 7 8 9 10 10 10 10 9 9 9 8 7 8 8 7 8 7 7 9 9 7 6 6 6 7 8 8 6 6 7 7 6 5 5 5 3 2 2 3 2 2 2 2 2 1 1
23 23 23 24 23 22 22 24 23 21 20 17 17 17 16 14 14 13 11 10 9 9 9 8 8 7 6 5 4 4 4 4 3 1 2 3 3 4 5 6 7 7 7 8 9 9 8 7 8 8 7 7 8 8 8 7 7 8 8 7 6 6 7 8 9 8 6 5 7 7 7 8 9 9 7 5 4 4 4 5 5 5 4 4 3
24 23 21 22 24 21 22 25 23 21 20 19 18 18 17 15 15 15 13 13 13 12 9 8 7 7 6 5 5 7 6 4 4 1 1 3 3 3 3 4 4 4 5 5 6 6 5 6 7 7 6 8 9 8 7 7 6 7 8 8 7 6 5 7 9 7 4 5 7 8 8 9 10 10 8 8 7 7 7 8 7 6 4 3 2
22 22 19 20 22 19 20 23 22 21 20 20 20 17 18 17 14 15 15 14 15 12 10 9 8 7 7 6 5 7 7 6 6 3 2 2 2 2 2 2 4 4 3 2 3 3 4 6 6 6 7 9 10 8 8 7 6 7 7 8 8 6 6 8 9 6 5 7 9 9 10 10 12 12 12 11 10 8 7 7 7 6 4 3 1
17 18 17 17 19 16 19 23 22 21 19 19 20 17 19 17 12 13 15 13 13 11 9 8 8 8 7 7 6 6 7 7 7 5 5 4 3 4 3 1 2 4 4 3 3 4 4 5 5 5 8 10 9 7 7 6 7 8 8 8 7 6 8 10 10 9 10 10 10 11 10 10 12 15 15 13 12 12 10 6 5 5 4 4 3
13 17 18 17 17 15 20 24 22 21 19 18 19 18 19 17 11 10 10 11 11 10 9 8 8 9 9 8 8 7 6 6 6 4 3 5 6 7 7 3 1 2 3 2 4 4 2 3 4 4 6 7 7 6 5 5 7 10 9 8 6 5 8 11 12 15 16 14 11 13 15 14 15 16 14 13 12 13 11 7 6 6 4 5 5
14 17 17 18 19 18 21 22 22 22 20 19 20 19 19 18 14 10 8 10 11 12 12 11 11 11 9 7 6 6 5 4 5 5 4 4 5 7 9 9 3 3 2 1 2 4 4 4 3 2 3 4 6 6 6 6 8 11 11 8 6 5 10 13 13 16 18 16 12 14 17 16 15 13 12 14 13 11 9 7 8 7 5 6 7
13 17 18 19 20 19 20 22 23 23 21 20 22 22 21 18 13 8 8 11 12 12 12 11 10 10 8 7 6 6 6 6 5 6 5 4 5 4 7 11 10 5 4 4 3 4 5 5 4 2 3 4 5 6 8 8 8 10 11 10 9 8 11 13 13 15 17 17 13 12 13 12 10 10 11 15 16 14 11 7 6 6 7 8 7
14 19 18 19 21 20 21 22 23 23 23 22 21 22 19 15 12 8 8 11 11 10 10 10 9 9 8 8 7 4 4 6 7 7 6 6 7 5 4 8 11 8 5 4 5 5 5 5 4 3 4 4 5 5 7 7 6 8 9 11 12 12 13 12 13 15 16 15 12 11 11 10 13 14 13 14 15 15 13 10 7 4 6 9 7
14 18 19 20 24 26 25 24 22 23 25 23 20 19 16 14 16 14 10 10 10 10 10 9 9 8 8 7 6 4 2 4 5 7 7 5 7 7 6 7 8 8 5 4 4 3 5 5 5 5 4 4 5 5 6 5 6 7 7 7 10 11 13 13 14 17 16 14 12 14 13 12 15 15 13 12 12 11 11 10 7 2 2 6 6
Wind_Direction
170 168 164 167 162 153 148 139 137 136 138 141 145 149 151 155 156 157 155 151 146 142 141 135 131 127 124 118 113 104 94 89 88 97 113 123 125 125 122 122 122 118 119 119 118 122 126 119 107 99 92 96 106 109 104 99 94 91 88 84 78 74 73 73 71 68 63 58 55 55 63 68 65 67 66 66 72 81 79 78 83 86 82 77 81
167 168 165 167 164 155 148 140 139 137 140 143 147 153 156 159 159 161 158 155 149 146 144 139 136 132 129 124 116 106 97 93 95 101 111 120 125 127 127 128 127 123 117 116 118 120 124 118 110 103 98 97 102 103 101 95 91 87 81 80 77 76 75 74 71 67 63 56 49 43 47 60 66 67 62 58 69 85 83 85 87 85 82 79 83
161 165 164 164 163 155 148 142 138 137 142 145 151 157 159 162 162 163 160 158 153 149 147 142 139 135 133 129 122 111 104 101 104 109 113 118 123 126 129 128 131 133 123 121 124 120 118 116 113 106 104 102 99 101 100 95 91 86 83 84 84 83 80 75 70 65 59 51 43 35 32 46 63 65 57 51 61 74 76 87 93 87 85 86 89
162 161 162 162 159 152 147 141 137 138 143 148 154 159 163 165 165 165 163 160 156 153 149 145 140 137 138 133 127 117 114 113 115 119 121 121 123 125 127 127 132 141 140 144 145 133 121 120 120 112 110 108 100 98 97 94 91 89 90 91 88 85 81 75 71 67 63 56 42 29 19 33 57 63 58 51 55 61 69 81 88 86 88 98 97
167 160 161 159 155 150 145 139 135 139 144 150 155 160 165 167 168 167 165 162 159 154 148 146 142 141 139 133 128 123 124 124 126 127 127 125 125 126 128 130 133 143 154 164 169 174 157 136 131 121 118 116 106 99 95 93 92 92 94 93 89 85 80 75 72 68 66 64 56 41 11 17 45 62 61 54 55 57 66 73 77 80 83 103 105
161 159 160 157 153 147 142 139 135 139 143 149 155 161 166 168 170 168 167 164 159 153 148 147 144 143 138 132 129 129 132 130 131 131 130 127 126 129 131 132 134 145 160 170 172 180 167 144 147 137 130 128 116 105 99 94 93 95 94 93 89 85 81 76 73 70 68 65 63 64 6 359 26 54 63 59 58 56 61 68 73 77 77 101 109
156 158 159 156 151 145 142 139 136 139 142 148 154 160 165 168 170 168 167 163 159 153 150 151 145 142 134 132 133 134 136 133 133 134 132 130 130 131 132 134 142 160 162 161 160 161 149 142 161 154 142 139 128 113 102 95 94 95 95 94 90 87 82 78 75 72 72 66 64 68 333 344 15 46 62 64 63 58 57 63 72 75 76 92 106
156 157 157 157 152 146 142 139 137 137 141 147 152 158 163 167 168 167 166 162 159 154 153 150 143 140 134 134 135 135 136 136 136 136 134 133 137 137 142 146 150 160 142 139 146 150 144 138 156 162 151 145 139 124 106 98 97 97 96 95 92 91 86 82 78 75 73 68 74 77 323 348 23 45 64 68 65 59 53 56 69 77 83 86 93
156 157 157 157 151 146 141 138 135 136 141 145 151 156 160 164 165 165 163 160 159 156 151 145 142 139 136 133 131 133 135 140 139 137 138 136 138 140 149 153 146 142 137 138 143 148 147 140 149 161 155 151 149 135 116 105 102 101 98 97 94 92 87 83 79 79 78 71 90 126 349 17 21 38 65 71 66 59 52 53 65 74 80 81 85
150 156 159 158 150 146 139 136 134 136 140 143 149 153 157 161 161 162 161 161 161 155 147 143 142 139 135 129 128 133 138 141 140 139 142 139 138 138 142 141 133 133 135 135 137 139 145 150 153 158 157 158 156 144 131 114 106 105 102 99 94 90 86 84 78 75 72 64 91 168 193 345 356 37 69 72 67 62 58 56 64 70 74 76 81
144 151 159 159 150 144 138 137 136 136 138 141 147 150 155 157 158 160 160 161 157 150 146 143 142 139 134 130 131 137 143 142 143 145 145 144 140 138 135 126 118 118 124 126 130 135 142 159 164 160 161 164 160 154 144 124 113 109 105 100 95 91 88 86 82 76 69 60 85 161 196 315 350 71 75 75 72 68 65 61 64 69 72 74 77
147 152 158 157 148 143 141 139 137 137 140 143 146 149 152 153 155 157 157 156 151 148 146 144 142 139 135 132 136 141 150 146 147 149 145 149 146 141 135 127 118 109 110 111 111 126 143 159 167 166 167 170 163 162 156 139 128 114 107 104 100 96 92 87 84 79 74 81 120 219 264 323 34 85 80 80 78 72 67 64 65 67 70 72 74
154 156 154 155 148 144 143 140 139 140 143 146 147 148 150 151 153 154 154 152 149 150 146 146 142 139 139 137 140 143 149 148 152 151 145 150 152 145 133 127 122 111 103 94 93 108 132 142 156 171 171 174 169 170 168 157 143 122 112 109 106 102 98 93 89 86 85 104 248 258 285 325 59 86 85 83 80 77 71 69 68 66 68 70 73
163 156 149 156 149 145 145 141 142 143 145 147 149 149 151 152 153 153 153 152 150 150 148 148 143 141 143 138 139 138 139 141 148 156 148 149 153 146 131 126 117 106 93 91 104 107 111 131 151 174 177 180 177 178 178 172 157 133 119 113 111 107 103 96 91 89 96 146 253 278 33 -0 64 89 87 85 82 81 78 75 74 71 69 69 71
169 157 151 160 149 146 147 144 144 143 147 148 151 152 153 155 154 155 153 153 152 152 151 148 147 143 142 140 139 133 133 136 143 154 146 146 153 145 132 127 111 100 90 95 122 113 71 75 100 174 188 188 187 186 184 185 171 143 125 119 114 109 105 101 98 90 99 172 257 299 345 355 45 92 86 87 87 87 84 81 80 78 75 71 71
170 158 156 160 150 149 147 145 145 144 150 151 154 155 156 157 155 157 156 156 155 154 153 153 153 146 147 150 144 136 134 133 137 143 138 146 155 149 139 132 119 113 129 126 131 108 40 32 31 50 200 195 196 197 193 193 184 158 136 127 120 113 107 104 101 93 98 201 255 289 309 352 28 88 87 89 93 94 90 87 85 83 80 77 75
160 153 154 157 151 151 149 148 149 149 154 154 158 159 157 158 158 161 159 159 157 156 157 156 154 149 152 151 148 143 137 133 133 135 136 152 155 147 148 150 161 147 171 210 180 322 342 354 331 212 206 200 201 206 205 203 191 171 150 132 127 120 113 112 107 107 126 219 243 287 323 354 3 58 86 97 97 95 93 90 87 85 85 82 80
148 150 151 154 152 152 153 154 155 155 158 159 162 160 158 161 163 164 162 162 160 160 159 155 152 148 150 146 146 143 136 136 137 142 147 162 163 159 175 178 166 154 215 283 279 297 9 57 256 232 220 213 202 203 207 208 197 178 156 135 132 124 116 114 106 119 166 224 249 278 313 343 347 13 76 95 100 98 93 90 89 87 87 87 84
150 151 148 152 154 157 164 163 162 162 164 164 162 160 162 166 166 165 164 164 164 162 158 155 153 147 144 137 132 131 131 133 138 156 167 180 195 200 204 206 190 152 318 342 316 44 56 67 140 215 212 215 200 194 199 203 197 177 158 141 133 123 112 103 103 140 200 212 231 259 296 335 339 331 69 95 103 102 97 92 92 90 88 88 87
151 148 149 156 162 170 176 170 167 171 172 167 163 163 166 169 168 167 167 165 166 163 158 155 152 144 136 130 126 128 126 128 142 166 178 193 201 219 234 253 250 61 44 25 9 21 30 46 60 180 199 194 184 184 188 192 191 174 161 147 137 127 115 112 133 182 215 210 226 247 285 329 336 318 26 99 103 106 105 101 96 94 92 90 90
153 153 161 167 174 182 178 171 174 180 176 170 166 166 171 173 168 167 168 164 166 161 154 151 147 141 132 130 129 125 126 133 153 174 186 203 215 248 249 256 282 15 14 7 359 358 7 32 42 34 65 182 175 181 186 187 187 174 167 153 147 141 121 121 154 200 224 216 238 259 300 333 337 322 314 99 103 109 114 115 108 101 97 94 93
157 160 172 174 177 179 175 172 182 185 177 173 168 169 178 175 167 168 168 164 165 158 152 150 148 145 134 129 121 109 121 151 166 178 190 212 227 256 262 275 349 13 4 -0 346 341 357 16 35 41 55 143 164 174 182 189 191 178 173 164 161 155 131 137 169 210 227 229 256 278 318 338 340 336 330 54 109 112 118 126 123 115 107 99 96
160 163 173 175 171 166 167 169 179 182 180 179 171 173 180 174 169 171 169 166 163 158 155 154 156 151 133 122 116 111 141 195 182 181 197 216 223 239 264 330 19 22 9 352 340 336 344 359 20 42 83 103 138 160 159 182 192 185 180 173 174 164 141 150 177 205 222 236 258 284 323 338 341 346 342 338 107 133 132 130 131 127 118 111 103
165 169 174 179 171 154 159 165 173 179 182 182 174 173 177 176 174 173 171 166 161 161 158 158 162 146 125 119 122 140 172 210 198 194 202 209 211 213 229 346 32 51 27 349 345 337 333 355 26 79 113 100 93 118 121 214 205 188 186 178 180 163 139 154 197 217 223 228 245 287 328 340 338 342 350 338 323 222 147 129 136 140 134 126 116
167 170 170 174 167 156 161 167 174 179 182 181 176 172 175 179 176 174 171 164 164 162 157 161 164 142 129 128 130 163 181 197 202 207 206 208 207 198 191 186 163 113 88 4 36 311 306 110 80 126 147 111 70 63 127 258 246 192 187 183 182 158 144 172 215 229 232 235 251 296 338 344 332 331 345 337 324 299 165 134 140 151 149 139 128
163 166 165 166 165 163 164 170 172 174 178 180 180 173 176 182 174 174 170 166 168 159 158 165 164 152 149 147 132 147 176 195 204 208 206 215 214 199 195 195 195 169 170 218 207 263 251 202 118 133 154 109 43 309 200 225 241 208 200 196 188 160 152 190 218 231 236 242 254 265 341 342 331 327 336 340 328 312 222 148 141 152 159 150 138
161 167 162 158 156 154 157 169 171 174 178 182 189 177 176 182 171 174 171 165 164 155 161 169 167 163 163 170 153 132 153 202 207 200 200 213 217 208 205 201 198 205 224 252 228 251 264 241 207 170 159 112 220 245 206 213 222 215 216 213 195 162 160 202 223 232 237 236 240 241 315 340 9 346 337 342 329 327 262 170 148 152 162 158 151
165 166 159 157 152 152 161 169 168 171 175 177 185 178 177 179 171 175 164 148 156 160 169 172 172 172 172 183 178 162 172 200 202 198 205 213 215 214 210 199 191 202 217 231 234 247 253 235 212 214 190 162 195 219 213 224 218 212 218 217 199 173 178 202 221 225 225 231 230 227 295 9 37 26 359 348 342 348 300 182 153 152 159 162 160
166 159 161 166 153 151 159 163 166 165 165 171 177 176 176 175 170 170 144 132 163 173 177 177 174 178 184 191 195 196 198 201 198 202 214 216 215 220 216 202 195 204 213 225 242 252 236 230 214 202 183 168 172 197 209 223 220 204 212 214 197 192 194 189 204 219 217 228 230 218 234 42 52 55 37 11 5 1 333 180 158 154 149 158 164
163 156 159 161 146 142 144 151 171 167 161 168 172 174 175 173 168 160 139 147 174 179 184 185 181 187 194 200 206 213 216 210 201 204 211 209 212 222 221 217 220 219 214 223 242 254 233 230 217 200 197 183 173 193 191 194 224 202 194 211 198 203 208 178 186 211 206 202 207 207 199 86 62 59 59 49 37 27 16 89 146 145 141 157 162
156 154 149 141 134 140 144 149 168 171 164 165 166 168 169 172 165 153 153 167 178 186 186 188 193 197 201 210 216 215 215 212 209 213 212 210 213 222 227 231 242 236 228 229 234 246 235 224 212 201 204 194 180 190 181 173 223 215 194 206 204 203 209 173 168 180 186 191 200 197 164 108 70 64 72 81 79 75 74 85 108 112 114 124 112
152 152 146 136 129 142 154 154 163 171 169 162 156 159 160 164 160 152 167 178 180 188 188 194 201 204 211 215 215 212 212 215 219 222 216 218 221 224 232 233 237 237 231 225 221 228 228 221 213 204 202 192 183 183 181 178 200 227 220 210 210 204 204 183 161 175 207 205 194 179 149 115 95 87 86 90 92 92 93 95 97 94 93 95 90
154 148 146 146 142 154 162 158 159 165 167 158 150 155 156 157 157 151 162 173 181 191 192 201 205 208 217 215 214 214 218 224 225 222 213 215 225 226 228 227 227 230 224 216 213 216 217 216 211 208 205 191 185 179 183 190 189 211 223 211 206 200 200 182 158 175 203 197 182 171 152 125 109 99 95 89 87 88 91 96 96 91 90 95 95
158 156 157 157 156 164 167 159 158 160 159 156 147 147 153 157 156 147 153 169 187 196 191 197 206 211 219 224 230 232 234 236 231 225 215 211 219 220 221 224 223 222 216 208 206 206 208 213 210 209 209 196 190 186 191 200 191 195 215 213 188 185 192 162 149 157 168 175 171 168 156 128 113 104 99 92 90 90 89 90 89 88 86 89 97
162 166 168 159 157 163 164 158 159 159 153 152 146 147 156 153 153 150 163 180 189 194 184 196 219 227 232 236 240 242 240 240 235 227 221 222 224 220 221 227 222 216 210 205 204 200 200 209 211 210 213 204 196 194 199 201 191 203 238 209 140 164 184 148 146 155 153 161 168 166 157 140 131 115 100 95 96 96 96 96 92 90 85 84 95
168 169 166 158 158 162 167 159 157 160 153 150 146 151 158 155 158 159 174 179 171 182 174 181 217 222 219 221 225 232 234 236 236 226 216 224 229 221 219 219 217 213 206 205 206 201 199 205 207 207 209 207 205 200 204 209 203 223 292 146 139 147 166 139 138 155 151 151 162 162 159 158 149 129 116 113 111 106 103 103 99 98 94 87 90
168 166 165 162 161 161 170 160 153 159 155 150 147 148 154 159 162 153 159 156 134 156 159 154 178 179 185 202 212 214 226 229 236 226 212 219 228 216 208 210 211 211 208 206 206 203 203 207 206 204 202 204 210 201 197 213 219 246 3 166 178 161 157 142 129 145 147 137 144 160 165 164 149 138 142 139 127 121 111 103 95 91 91 83 79
162 165 170 169 164 160 168 165 155 158 157 153 151 149 148 153 156 142 136 138 132 145 133 114 127 144 175 194 200 195 199 193 161 204 209 208 212 204 202 207 204 204 210 205 201 204 206 208 207 203 200 206 214 210 209 221 228 239 215 200 202 179 166 158 137 137 141 140 142 166 170 156 146 142 150 154 141 128 117 114 114 102 87 75 66
166 167 172 170 168 163 166 168 161 160 159 157 154 153 148 139 141 138 131 134 132 127 112 99 101 190 185 177 178 179 176 168 141 171 204 188 184 193 194 194 194 194 201 203 203 208 206 201 205 208 207 211 224 234 221 218 216 196 196 210 207 191 181 171 153 143 146 158 164 187 194 181 191 192 172 164 143 126 133 128 123 122 105 95 78
177 172 174 170 171 164 161 164 162 162 160 156 151 153 151 134 135 145 139 132 128 126 132 168 206 219 203 169 162 159 155 159 151 167 194 179 174 193 191 184 195 195 191 199 203 205 205 203 205 214 215 211 223 238 213 206 200 154 167 206 194 172 179 172 159 150 155 179 194 219 241 250 229 205 194 196 196 211 239 267 289 267 194 151 199
186 178 172 169 172 164 160 162 160 160 158 151 143 144 146 136 138 141 130 130 144 149 155 172 183 180 164 158 143 138 143 149 150 161 177 177 172 199 203 190 197 198 193 196 198 199 204 209 209 207 211 210 215 229 212 199 188 155 160 206 191 155 169 162 134 120 126 151 161 180 201 174 151 148 201 217 222 228 240 265 270 250 231 230 264
189 182 174 170 169 161 160 162 158 156 153 146 139 137 134 131 132 129 132 149 156 155 170 185 191 186 174 178 158 134 135 135 135 140 154 170 169 188 205 201 198 198 197 198 199 199 200 206 208 200 198 209 214 219 215 204 195 168 160 195 189 153 148 143 128 120 126 137 131 130 135 142 128 111 135 163 172 195 189 180 167 136 135 121 102
186 178 173 167 161 156 157 155 152 151 147 143 138 132 131 132 134 139 147 148 148 168 186 186 188 187 181 188 164 121 93 99 109 117 141 148 148 156 181 199 203 200 196 198 201 200 202 201 199 197 191 200 211 214 213 208 203 183 164 175 181 156 141 138 134 131 134 128 120 123 127 135 130 117 116 117 125 133 113 118 126 122 124 105 91
183 171 167 163 154 151 154 149 148 149 144 144 143 138 141 142 141 152 157 153 165 182 176 157 160 164 163 178 165 130 120 127 120 99 174 153 156 147 148 167 180 188 185 190 200 200 206 203 198 202 191 192 210 216 212 210 211 198 176 172 175 169 157 149 146 143 131 111 107 105 108 117 122 119 118 114 110 112 107 107 107 105 113 102 88
176 163 156 155 147 145 153 148 144 146 144 147 150 145 145 141 139 157 165 167 174 171 154 147 145 151 160 169 159 133 134 137 128 143 184 161 165 144 114 131 151 156 152 152 183 178 180 195 203 207 196 200 214 211 199 198 204 203 185 174 172 175 185 170 154 142 121 114 105 96 100 107 106 101 98 94 89 88 90 94 101 104 106 107 115
171 157 139 135 133 134 146 145 142 145 146 149 149 144 142 139 139 162 171 167 160 154 152 145 137 153 163 154 148 142 143 139 141 173 181 150 135 133 126 123 132 138 149 157 151 142 157 177 178 183 193 204 212 203 190 188 194 193 185 183 185 190 192 177 153 129 112 109 103 98 100 97 97 96 93 94 92 86 85 84 95 109 119 129 127
126 130 122 123 130 135 143 147 148 148 149 150 148 145 140 133 138 164 168 154 152 164 165 154 163 179 176 167 165 153 148 147 145 157 157 140 137 139 143 149 28 61 109 157 152 136 141 166 163 162 174 191 205 204 191 191 200 199 190 185 190 188 180 172 154 134 120 113 110 115 120 116 113 112 115 128 127 113 115 120 110 109 127 135 128
108 127 133 137 143 145 150 153 153 153 153 150 148 147 139 136 149 172 172 161 172 179 173 173 186 184 169 161 149 132 131 144 137 124 115 118 130 141 144 144 119 41 55 236 185 160 158 164 185 188 152 174 195 195 190 187 195 205 203 192 190 171 166 168 157 143 131 127 128 128 131 131 127 120 123 134 132 121 124 128 124 127 124 112 114
135 145 152 155 153 149 152 157 157 158 159 156 153 150 144 148 162 179 185 188 190 181 176 181 179 166 146 136 148 162 168 164 145 131 130 121 117 132 149 146 138 140 197 220 177 159 168 175 196 201 177 184 184 181 185 179 175 194 198 188 189 180 171 169 160 153 142 135 138 138 133 131 125 116 115 124 126 122 117 107 114 131 118 103 102
146 148 154 159 157 156 159 159 161 166 167 165 161 154 150 154 160 166 190 202 191 172 177 179 164 156 149 153 173 183 177 174 159 144 148 147 135 133 145 148 145 150 180 188 158 158 163 161 158 153 167 178 173 172 178 177 172 183 187 180 183 186 183 175 162 161 154 144 144 142 136 127 118 114 111 117 122 124 124 115 108 117 116 110 101
151 162 171 168 164 167 169 165 168 176 175 170 165 159 155 157 161 162 178 192 182 178 188 175 156 154 150 154 161 148 177 205 176 158 155 152 149 143 125 123 135 136 128 113 114 140 149 139 119 117 132 146 152 165 163 158 162 164 166 169 178 186 186 177 169 168 162 153 145 135 132 126 117 117 119 118 113 112 121 125 124 120 98 107 104